Terug naar catalogus

FENGYUN 1C DEB

ActiefSSO
NORAD 30310·DEBRIS·🇨🇳 China

Gelanceerd May 10, 1999 vanaf Taiyuan Satellite Launch Center

Loading…

Volgende Passages (komende 24 uur)

TLE

VersSource: Space-Track

Epoch: Sep 14, 2026, 06:27 UTC

1 30310U 99025ZX  26257.26876401  .00000636  00000-0  30287-3 0  9996
2 30310  98.6521 271.2983 0238126 296.1263  61.5585 14.09046216  6103

Volg FENGYUN 1C DEB in realtime met AllMySat

Download on the App Store